weather.gov     
National Weather Service

Terminal Aerodrome Forecast
NWS Homepage
This page is being discontinued on March 12, 2014.
The same data is available at this site. Please update your bookmarks.
Thank you, and we apologize for the inconvenience.
Please send an email to SR-SRH.Webmaster@noaa.gov with any concerns.


Current Version
Previous Version:    01  02  03  04  05  06  07  08  09  10  11  12  13  14  
[Printable]
843
FTUS41 KBTV 212100 AAA
TAFMPV
TAF AMD
KMPV 212126Z 2121/2218 14006KT 6SM -SHRA BR SCT005 OVC015
      TEMPO 2121/2124 BKN005 OVC015
     FM220000 02005KT 5SM BR VCSH BKN005 OVC015
     FM221200 02005KT 5SM BR VCSH OVC015=


U.S. Dept. of Commerce
NOAA National Weather Service
1325 East West Highway
Silver Spring, MD 20910
E-mail: w-nws.webmaster@noaa.gov
Page last modified: May 16, 2007
NATIONAL WEATHER SERVICE: for Safety, for Work, for Fun - FOR LIFE